{"data":{"norad_id":57894,"epoch":"2026-09-20T09:17:46.630464Z","epoch_age_seconds":144126,"freshness":"FRESH","line1":"1 57894U 23146D   26263.38734526 -.00001099  00000+0 -30423-4 0  9992","line2":"2 57894  43.0010 294.5771 0000816 269.8548  90.2210 15.27577754166833","mean_motion":15.27577754,"eccentricity":8.16e-5,"inclination_deg":43.001,"raan_deg":294.5771,"arg_perigee_deg":269.8548,"mean_anomaly_deg":90.221,"bstar":-3.0423e-5,"rev_number":16683,"period_min":94.266887314202,"perigee_km":482.49594804566,"apogee_km":483.61569471411,"semimajor_km":6861.1928213799,"source":"CELESTRAK","updated_at":"2026-09-21T09:00:33.721046Z"}}